| time (UTC) | temp F | wind direction | speed MPH | gust MPH | rain 1hr in | rain 24hr in | rain mn in | humidity % | barometer mb |
| 20260905074821 | 76 | 150 | 0.0 | 0.0 | 0.00 | 0.00 | 0.00 | 99 | 1015.9 |
| 20260905071817 | 76 | 150 | 0.0 | 0.0 | 0.00 | 0.00 | 0.00 | 99 | 1016.2 |
| 20260905064814 | 76 | 151 | 0.0 | 0.0 | 0.00 | 0.00 | 0.00 | 99 | 1016.6 |
| 20260905061813 | 76 | 151 | 0.0 | 0.0 | 0.00 | 0.00 | 0.00 | 99 | 1016.4 |
| 20260905054810 | 77 | 151 | 0.0 | 0.0 | 0.00 | 0.00 | 0.00 | 98 | 1016.5 |
| 20260905051807 | 77 | 150 | 0.0 | 0.0 | 0.00 | 0.00 | 0.00 | 98 | 1016.6 |
| 20260905044804 | 78 | 150 | 0.0 | 0.0 | 0.00 | 0.01 | 0.01 | 96 | 1016.7 |
| 20260905041759 | 78 | 145 | 0.0 | 0.0 | 0.00 | 0.01 | 0.01 | 95 | 1016.6 |
| 20260905034754 | 78 | 137 | 0.0 | 0.0 | 0.00 | 0.01 | 0.01 | 96 | 1016.6 |
| 20260905031749 | 79 | 126 | 0.0 | 0.0 | 0.00 | 0.01 | 0.01 | 93 | 1017.0 |
| 20260905024745 | 80 | 129 | 0.0 | 0.0 | 0.00 | 0.01 | 0.01 | 92 | 1016.7 |
| 20260905021742 | 80 | 140 | 0.0 | 0.0 | 0.00 | 0.01 | 0.01 | 92 | 1016.5 |
| 20260905014743 | 81 | 121 | 0.0 | 0.0 | 0.00 | 0.01 | 0.01 | 94 | 1016.3 |
| 20260905011741 | 81 | 132 | 0.0 | 0.0 | 0.00 | 0.01 | 0.01 | 92 | 1015.8 |
| 20260905004741 | 83 | 132 | 0.0 | 0.0 | 0.00 | 0.01 | 0.01 | 89 | 1015.7 |
| 20260905001740 | 84 | 72 | 0.0 | 1.0 | 0.00 | 0.01 | 0.01 | 88 | 1015.3 |
| 20260904234738 | 85 | 144 | 0.0 | 2.0 | 0.00 | 0.01 | 0.01 | 85 | 1015.3 |
| 20260904231736 | 86 | 137 | 0.0 | 0.0 | 0.00 | 0.01 | 0.01 | 83 | 1015.3 |
| 20260904224736 | 87 | 129 | 0.0 | 1.0 | 0.00 | 0.01 | 0.01 | 79 | 1015.3 |
| 20260904221735 | 90 | 118 | 1.0 | 1.0 | 0.00 | 0.01 | 0.01 | 75 | 1015.7 |
| 20260904214733 | 89 | 184 | 1.0 | 1.0 | 0.00 | 0.01 | 0.01 | 74 | 1015.7 |
| 20260904211730 | 91 | 137 | 0.0 | 1.0 | 0.00 | 0.01 | 0.01 | 67 | 1015.8 |
| 20260904204727 | 85 | 171 | 1.0 | 1.0 | 0.00 | 0.01 | 0.01 | 84 | 1016.6 |
| 20260904201725 | 84 | 130 | 0.0 | 0.0 | 0.00 | 0.01 | 0.01 | 85 | 1016.9 |
| 20260904194725 | 82 | 122 | 0.0 | 1.0 | 0.00 | 0.01 | 0.01 | 89 | 1017.1 |
| 20260904191720 | 81 | 158 | 1.0 | 1.0 | 0.00 | 0.01 | 0.01 | 91 | 1017.4 |
| 20260904184720 | 80 | 117 | 0.0 | 0.0 | 0.00 | 0.01 | 0.01 | 93 | 1017.8 |
| 20260904181716 | 78 | 130 | 0.0 | 1.0 | 0.00 | 0.01 | 0.01 | 95 | 1018.3 |
| 20260904174716 | 80 | 142 | 0.0 | 1.0 | 0.00 | 0.01 | 0.01 | 91 | 1018.6 |
| 20260904171711 | 82 | 28 | 1.0 | 1.0 | 0.00 | 0.00 | 0.00 | 84 | 1018.8 |
| 20260904164709 | 85 | 172 | 3.0 | 5.0 | 0.00 | 0.00 | 0.00 | 81 | 1018.8 |
| 20260904161708 | 89 | 156 | 1.0 | 5.0 | 0.00 | 0.00 | 0.00 | 81 | 1018.1 |
| 20260904154704 | 88 | 151 | 1.0 | 2.0 | 0.00 | 0.00 | 0.00 | 83 | 1017.8 |
| 20260904151704 | 88 | 107 | 2.0 | 3.0 | 0.00 | 0.00 | 0.00 | 85 | 1017.7 |
| 20260904144701 | 88 | 99 | 1.0 | 3.0 | 0.00 | 0.00 | 0.00 | 86 | 1017.7 |
| 20260904141659 | 87 | 134 | 0.0 | 1.0 | 0.00 | 0.00 | 0.00 | 89 | 1017.8 |
| 20260904134659 | 82 | 135 | 0.0 | 1.0 | 0.00 | 0.00 | 0.00 | 99 | 1017.6 |
| 20260904131654 | 80 | 146 | 1.0 | 1.0 | 0.00 | 0.00 | 0.00 | 99 | 1017.4 |
| 20260904124654 | 79 | 124 | 0.0 | 0.0 | 0.00 | 0.00 | 0.00 | 99 | 1017.2 |
| 20260904121654 | 78 | 112 | 0.0 | 0.0 | 0.00 | 0.00 | 0.00 | 99 | 1016.9 |
| 20260904114649 | 78 | 118 | 0.0 | 2.0 | 0.00 | 0.00 | 0.00 | 99 | 1016.7 |
| 20260904111647 | 78 | 117 | 0.0 | 0.0 | 0.00 | 0.00 | 0.00 | 99 | 1016.5 |
| 20260904104646 | 78 | 119 | 0.0 | 0.0 | 0.00 | 0.00 | 0.00 | 99 | 1016.3 |
| 20260904101644 | 78 | 134 | 0.0 | 0.0 | 0.00 | 0.00 | 0.00 | 99 | 1016.1 |
| 20260904094643 | 78 | 123 | 0.0 | 0.0 | 0.00 | 0.00 | 0.00 | 99 | 1016.0 |
| 20260904091640 | 78 | 118 | 0.0 | 0.0 | 0.00 | 0.00 | 0.00 | 99 | 1015.8 |
| 20260904084638 | 79 | 124 | 0.0 | 0.0 | 0.00 | 0.00 | 0.00 | 99 | 1015.8 |
| 20260904081636 | 78 | 124 | 0.0 | 0.0 | 0.00 | 0.00 | 0.00 | 99 | 1015.8 |